Location: Holbach
(51.5399°N, 10.6036°E)
Time: 10:35:25
(UTC+00:00)

Cosmos 2227 Rocket - Pass Details

Date: 18 September 2020
Orbit: 840 x 844 km, 71.0° (Epoch: 30 October)

Event Time Altitude Azimuth Distance (km) Brightness Sun altitude
Rises 18:14:59 0° 247° (WSW) 3,391 6.3 -8.6°
Reaches altitude 10° 18:17:45 10° 258° (WSW) 2,459 5.8 -9.0°
Maximum altitude 18:22:37 29° 318° (NW) 1,503 4.2 -9.8°
Drops below altitude 10° 18:27:30 10° 18° (NNE) 2,469 4.6 -10.5°
Sets 18:30:18 0° 29° (NNE) 3,406 5.2 -10.9°
